Location: Dumpton Point
(51.3500°N, 1.4433°E)
Time: 21:54:45
(UTC+00:00)

Vanguard 1 - Pass Details

Date: 01 October 2022
Orbit: 650 x 3831 km, 34.2° (Epoch: 03 December)

Event Time Altitude Azimuth Distance (km) Brightness Sun altitude
Rises 17:45:44 0° 258° (WSW) 5,440 16.2 -2.9°
Reaches altitude 10° 17:51:08 10° 243° (WSW) 3,797 14.3 -3.8°
Maximum altitude 17:56:50 18° 204° (SSW) 2,537 12.5 -4.7°
Drops below altitude 10° 18:01:03 10° 162° (SSE) 2,655 12.1 -5.3°
Sets 18:03:57 0° 142° (SE) 3,319 12.4 -5.8°
